Location: Cudham
(51.3000°N, 0.0667°E)
Time: 16:34:43
(UTC+00:00)

USA 229 DEB - Pass Details

Date: 22 April 2026
Orbit: 844 x 1364 km, 63.4° (Epoch: 10 January)

Event Time Altitude Azimuth Distance (km) Brightness Sun altitude
Rises 21:15:55 0° 304° (NW) 3,795 8.1 -17.2°
Reaches altitude 10° 21:18:39 10° 313° (NW) 2,919 7.3 -17.5°
Maximum altitude 21:25:07 38° 20° (NNE) 1,723 5.0 -18.1°
Drops below altitude 10° 21:32:20 10° 87° (E) 3,260 5.9 -18.8°
Enters shadow 21:33:11 - 90° (E) 3,526 6.1 -18.9°
